"read_dt","SO2 (ppb)","flags","PMT voltage (V)","lamp voltage (V)","lamp intensity (Hz)","internal temp (C)","react chamber temp (C)","sample flow (l/min)","pres (mmHg)","SO2 bkg (ppb)","SO2 coefficient"
2017-03-02 00:00:00,1781E-3,5C000400,-0724,0840,11938,026.7,045.4,0.225,766.4,01.15,0.508
2017-03-02 00:01:00,1802E-3,5C000400,-0724,0839,12045,026.7,045.4,0.225,766.4,01.15,0.508
2017-03-02 00:02:00,1745E-3,5C000400,-0724,0839,11987,026.7,045.4,0.225,766.4,01.15,0.508
2017-03-02 00:03:00,1753E-3,5C000400,-0724,0839,11982,026.7,045.4,0.225,766.4,01.15,0.508
2017-03-02 00:04:00,1934E-3,5C000400,-0724,0838,12029,026.7,045.4,0.225,766.3,01.15,0.508
2017-03-02 00:05:00,1752E-3,5C000400,-0724,0838,12070,026.6,045.4,0.225,766.3,01.15,0.508
2017-03-02 00:06:00,1731E-3,5C000400,-0724,0840,12036,026.6,045.4,0.225,766.3,01.15,0.508
2017-03-02 00:07:00,1831E-3,5C000400,-0724,0839,12071,026.6,045.4,0.225,766.3,01.15,0.508
2017-03-02 00:08:00,1830E-3,5C000400,-0724,0839,12146,026.7,045.4,0.225,766.3,01.15,0.508
2017-03-02 00:09:00,1720E-3,5C000400,-0724,0839,11965,026.6,045.4,0.225,766.3,01.15,0.508
2017-03-02 00:10:00,1792E-3,5C000400,-0724,0838,11988,026.6,045.4,0.225,766.3,01.15,0.508
2017-03-02 00:11:00,1740E-3,5C000400,-0724,0838,12052,026.6,045.4,0.225,766.2,01.15,0.508
2017-03-02 00:12:00,1801E-3,5C000400,-0724,0839,12053,026.7,045.4,0.225,766.3,01.15,0.508
2017-03-02 00:13:00,1710E-3,5C000400,-0724,0839,12065,026.7,045.4,0.225,766.3,01.15,0.508
2017-03-02 00:14:00,1781E-3,5C000400,-0724,0838,12138,026.6,045.4,0.225,766.3,01.15,0.508
2017-03-02 00:15:00,1837E-3,5C000400,-0724,0839,12037,026.6,045.4,0.225,766.2,01.15,0.508
2017-03-02 00:16:00,1800E-3,5C000400,-0724,0840,11995,026.7,045.4,0.224,766.2,01.15,0.508
2017-03-02 00:17:00,1880E-3,5C000400,-0724,0840,12078,026.6,045.4,0.225,766.2,01.15,0.508
2017-03-02 00:18:00,1734E-3,5C000400,-0724,0840,12087,026.7,045.4,0.225,766.2,01.15,0.508
2017-03-02 00:19:00,1796E-3,5C000400,-0724,0839,11975,026.7,045.4,0.225,766.2,01.15,0.508
2017-03-02 00:20:00,1769E-3,5C000400,-0724,0839,11932,026.7,045.4,0.225,766.2,01.15,0.508
2017-03-02 00:21:00,1768E-3,5C000400,-0724,0839,11987,026.7,045.4,0.225,766.2,01.15,0.508
2017-03-02 00:22:00,1611E-3,5C000400,-0724,0839,12004,026.6,045.4,0.225,766.2,01.15,0.508
2017-03-02 00:23:00,1831E-3,5C000400,-0724,0839,11949,026.7,045.4,0.225,766.2,01.15,0.508
2017-03-02 00:24:00,1802E-3,5C000400,-0724,0839,12103,026.7,045.4,0.225,766.2,01.15,0.508
2017-03-02 00:25:00,1806E-3,5C000400,-0724,0840,12078,026.7,045.4,0.225,766.2,01.15,0.508
2017-03-02 00:26:00,1767E-3,5C000400,-0724,0839,12154,026.7,045.4,0.225,766.2,01.15,0.508
2017-03-02 00:27:00,1810E-3,5C000400,-0724,0839,12240,026.7,045.4,0.225,766.2,01.15,0.508
2017-03-02 00:28:00,1781E-3,5C000400,-0724,0839,11926,026.7,045.4,0.225,766.2,01.15,0.508
2017-03-02 00:29:00,1757E-3,5C000400,-0724,0838,12000,026.7,045.4,0.225,766.3,01.15,0.508
2017-03-02 00:30:00,1690E-3,5C000400,-0724,0839,12067,026.7,045.4,0.225,766.2,01.15,0.508
2017-03-02 00:31:00,1683E-3,5C000400,-0724,0840,12064,026.7,045.4,0.225,766.3,01.15,0.508
2017-03-02 00:32:00,1703E-3,5C000400,-0724,0839,11939,026.7,045.4,0.225,766.3,01.15,0.508
2017-03-02 00:33:00,1677E-3,5C000400,-0724,0839,12016,026.7,045.4,0.225,766.3,01.15,0.508
2017-03-02 00:34:00,1712E-3,5C000400,-0724,0839,11978,026.7,045.4,0.225,766.2,01.15,0.508
2017-03-02 00:35:00,1810E-3,5C000400,-0724,0839,12075,026.7,045.4,0.225,766.1,01.15,0.508
2017-03-02 00:36:00,1785E-3,5C000400,-0724,0839,12013,026.7,045.4,0.225,766.1,01.15,0.508
2017-03-02 00:37:00,1680E-3,5C000400,-0724,0840,12086,026.7,045.4,0.225,766.1,01.15,0.508
2017-03-02 00:38:00,1774E-3,5C000400,-0724,0839,11916,026.7,045.4,0.225,766.1,01.15,0.508
2017-03-02 00:39:00,1686E-3,5C000400,-0724,0838,12235,026.7,045.4,0.225,766.1,01.15,0.508
2017-03-02 00:40:00,1685E-3,5C000400,-0724,0839,11945,026.7,045.4,0.225,766.1,01.15,0.508
2017-03-02 00:41:00,1786E-3,5C000400,-0724,0839,12032,026.7,045.4,0.225,766.1,01.15,0.508
2017-03-02 00:42:00,1746E-3,5C000400,-0724,0840,12012,026.7,045.4,0.225,766.1,01.15,0.508
2017-03-02 00:43:00,1644E-3,5C000400,-0724,0839,12059,026.7,045.4,0.225,766.1,01.15,0.508
2017-03-02 00:44:00,1748E-3,5C000400,-0724,0839,12029,026.7,045.4,0.225,766.2,01.15,0.508
2017-03-02 00:45:00,1648E-3,5C000400,-0724,0839,12096,026.7,045.4,0.225,766.1,01.15,0.508
2017-03-02 00:46:00,1742E-3,5C000400,-0724,0838,11989,026.7,045.4,0.225,766.2,01.15,0.508
2017-03-02 00:47:00,1851E-3,5C000400,-0724,0839,12041,026.7,045.4,0.225,766.2,01.15,0.508
2017-03-02 00:48:00,1661E-3,5C000400,-0724,0839,12133,026.7,045.4,0.225,766.2,01.15,0.508
2017-03-02 00:49:00,1679E-3,5C000400,-0724,0839,11907,026.7,045.4,0.225,766.2,01.15,0.508
2017-03-02 00:50:00,1719E-3,5C000400,-0724,0840,12089,026.7,045.4,0.225,766.2,01.15,0.508
2017-03-02 00:51:00,1665E-3,5C000400,-0724,0839,11926,026.7,045.4,0.225,766.2,01.15,0.508
2017-03-02 00:52:00,1745E-3,5C000400,-0724,0839,12108,026.7,045.4,0.225,766.2,01.15,0.508
2017-03-02 00:53:00,1760E-3,5C000400,-0724,0840,12067,026.7,045.4,0.225,766.2,01.15,0.508
2017-03-02 00:54:00,1731E-3,5C000400,-0724,0839,12064,026.7,045.4,0.224,766.2,01.15,0.508
2017-03-02 00:55:00,1752E-3,5C000400,-0724,0840,11926,026.7,045.4,0.225,766.2,01.15,0.508
2017-03-02 00:56:00,1886E-3,5C000400,-0724,0839,12038,026.7,045.4,0.225,766.2,01.15,0.508
2017-03-02 00:57:00,1633E-3,5C000400,-0724,0840,12028,026.7,045.4,0.225,766.2,01.15,0.508
2017-03-02 00:58:00,1829E-3,5C000400,-0724,0839,12019,026.7,045.4,0.225,766.2,01.15,0.508
2017-03-02 00:59:00,1667E-3,5C000400,-0724,0839,11940,026.7,045.4,0.224,766.2,01.15,0.508
2017-03-02 01:00:00,1688E-3,5C000400,-0724,0839,11924,026.7,045.4,0.225,766.3,01.15,0.508
2017-03-02 01:01:00,1635E-3,5C000400,-0724,0839,12091,026.7,045.4,0.225,766.3,01.15,0.508
2017-03-02 01:02:00,1798E-3,5C000400,-0724,0839,12188,026.7,045.4,0.225,766.2,01.15,0.508
2017-03-02 01:03:00,1682E-3,5C000400,-0724,0839,12046,026.7,045.4,0.225,766.2,01.15,0.508
2017-03-02 01:04:00,1723E-3,5C000400,-0724,0839,11975,026.7,045.4,0.224,766.3,01.15,0.508
2017-03-02 01:05:00,1716E-3,5C000400,-0724,0839,12055,026.7,045.4,0.225,766.2,01.15,0.508
2017-03-02 01:06:00,1746E-3,5C000400,-0724,0839,11995,026.7,045.4,0.225,766.3,01.15,0.508
2017-03-02 01:07:00,1690E-3,5C000400,-0724,0839,12117,026.7,045.4,0.225,766.2,01.15,0.508
2017-03-02 01:08:00,1595E-3,5C000400,-0724,0839,12191,026.7,045.4,0.225,766.3,01.15,0.508
2017-03-02 01:09:00,1763E-3,5C000400,-0724,0839,12144,026.7,045.4,0.225,766.2,01.15,0.508
2017-03-02 01:10:00,1776E-3,5C000400,-0724,0839,11941,026.7,045.4,0.224,766.2,01.15,0.508
2017-03-02 01:11:00,1749E-3,5C000400,-0724,0840,12053,026.7,045.4,0.225,766.2,01.15,0.508
2017-03-02 01:12:00,1719E-3,5C000400,-0724,0839,12146,026.7,045.4,0.225,766.2,01.15,0.508
2017-03-02 01:13:00,1682E-3,5C000400,-0724,0839,12019,026.7,045.4,0.225,766.3,01.15,0.508
2017-03-02 01:14:00,1698E-3,5C000400,-0724,0839,12139,026.8,045.4,0.225,766.3,01.15,0.508
2017-03-02 01:15:00,1778E-3,5C000400,-0724,0839,11914,026.7,045.4,0.224,766.2,01.15,0.508
2017-03-02 01:16:00,1688E-3,5C000400,-0724,0839,12040,026.7,045.4,0.225,766.2,01.15,0.508
2017-03-02 01:17:00,1597E-3,5C000400,-0724,0838,12072,026.7,045.4,0.225,766.3,01.15,0.508
2017-03-02 01:18:00,1702E-3,5C000400,-0724,0839,12172,026.7,045.4,0.225,766.3,01.15,0.508
2017-03-02 01:19:00,1711E-3,5C000400,-0724,0839,12112,026.8,045.4,0.225,766.3,01.15,0.508
2017-03-02 01:20:00,1734E-3,5C000400,-0724,0839,11852,026.7,045.4,0.225,766.3,01.15,0.508
2017-03-02 01:21:00,1700E-3,5C000400,-0724,0839,12127,026.8,045.4,0.224,766.3,01.15,0.508
2017-03-02 01:22:00,1713E-3,5C000400,-0724,0839,12040,026.7,045.4,0.225,766.3,01.15,0.508
2017-03-02 01:23:00,1752E-3,5C000400,-0724,0839,11952,026.8,045.4,0.225,766.3,01.15,0.508
2017-03-02 01:24:00,1574E-3,5C000400,-0724,0839,12088,026.8,045.4,0.225,766.3,01.15,0.508
2017-03-02 01:25:00,1836E-3,5C000400,-0724,0840,12075,026.8,045.4,0.225,766.2,01.15,0.508
2017-03-02 01:26:00,1676E-3,5C000400,-0724,0840,11920,026.8,045.4,0.224,766.3,01.15,0.508
2017-03-02 01:27:00,1691E-3,5C000400,-0724,0839,12095,026.8,045.4,0.225,766.3,01.15,0.508
2017-03-02 01:28:00,1729E-3,5C000400,-0724,0839,12047,026.8,045.4,0.225,766.3,01.15,0.508
2017-03-02 01:29:00,1738E-3,5C000400,-0724,0839,12064,026.8,045.4,0.225,766.2,01.15,0.508
2017-03-02 01:30:00,1743E-3,5C000400,-0724,0839,12127,026.8,045.4,0.225,766.2,01.15,0.508
2017-03-02 01:31:00,1757E-3,5C000400,-0724,0839,12039,026.8,045.4,0.225,766.2,01.15,0.508
2017-03-02 01:32:00,1713E-3,5C000400,-0724,0839,12029,026.8,045.4,0.224,766.2,01.15,0.508
2017-03-02 01:33:00,1729E-3,5C000400,-0724,0839,12190,026.8,045.4,0.225,766.2,01.15,0.508
2017-03-02 01:34:00,1686E-3,5C000400,-0724,0839,12050,026.8,045.4,0.225,766.2,01.15,0.508
2017-03-02 01:35:00,1770E-3,5C000400,-0724,0839,12045,026.8,045.4,0.225,766.2,01.15,0.508
2017-03-02 01:36:00,1785E-3,5C000400,-0724,0840,12161,026.8,045.4,0.225,766.1,01.15,0.508
2017-03-02 01:37:00,1719E-3,5C000400,-0724,0840,12035,026.8,045.4,0.225,766.2,01.15,0.508
2017-03-02 01:38:00,1557E-3,5C000400,-0724,0840,11979,026.8,045.4,0.225,766.2,01.15,0.508
2017-03-02 01:39:00,1591E-3,5C000400,-0724,0839,12030,026.8,045.4,0.225,766.2,01.15,0.508
2017-03-02 01:40:00,1651E-3,5C000400,-0724,0839,12223,026.8,045.4,0.225,766.2,01.15,0.508
2017-03-02 01:41:00,1640E-3,5C000400,-0724,0839,12150,026.8,045.4,0.224,766.2,01.15,0.508
2017-03-02 01:42:00,1741E-3,5C000400,-0724,0839,12031,026.8,045.4,0.225,766.2,01.15,0.508
2017-03-02 01:43:00,1649E-3,5C000400,-0724,0838,12107,026.8,045.4,0.225,766.2,01.15,0.508
2017-03-02 01:44:00,1803E-3,5C000400,-0724,0838,12070,026.8,045.4,0.225,766.2,01.15,0.508
2017-03-02 01:45:00,1667E-3,5C000400,-0724,0840,12067,026.8,045.4,0.225,766.2,01.15,0.508
2017-03-02 01:46:00,1650E-3,5C000400,-0724,0839,12044,026.9,045.4,0.224,766.2,01.15,0.508
2017-03-02 01:47:00,1770E-3,5C000400,-0724,0840,12094,026.9,045.4,0.224,766.2,01.15,0.508
2017-03-02 01:48:00,1734E-3,5C000400,-0724,0839,12074,026.8,045.4,0.225,766.2,01.15,0.508
2017-03-02 01:49:00,1703E-3,5C000400,-0724,0839,12183,026.9,045.4,0.225,766.2,01.15,0.508
2017-03-02 01:50:00,1537E-3,5C000400,-0724,0839,12086,026.9,045.4,0.225,766.2,01.15,0.508
2017-03-02 01:51:00,1574E-3,5C000400,-0724,0840,12102,026.9,045.4,0.224,766.2,01.15,0.508
2017-03-02 01:52:00,1555E-3,5C000400,-0724,0839,12079,026.9,045.4,0.224,766.2,01.15,0.508
2017-03-02 01:53:00,1644E-3,5C000400,-0724,0839,11989,026.9,045.4,0.224,766.2,01.15,0.508
2017-03-02 01:54:00,1670E-3,5C000400,-0724,0839,12073,026.9,045.4,0.225,766.1,01.15,0.508
2017-03-02 01:55:00,1658E-3,5C000400,-0724,0839,11957,026.9,045.4,0.224,766.1,01.15,0.508
2017-03-02 01:56:00,1642E-3,5C000400,-0724,0839,12078,026.9,045.4,0.224,766.1,01.15,0.508
2017-03-02 01:57:00,1633E-3,5C000400,-0724,0839,12083,026.9,045.4,0.224,766.1,01.15,0.508
2017-03-02 01:58:00,1864E-3,5C000400,-0724,0839,12023,026.9,045.4,0.224,766.1,01.15,0.508
2017-03-02 01:59:00,1640E-3,5C000400,-0724,0839,12053,026.9,045.4,0.225,766.1,01.15,0.508
2017-03-02 02:00:00,1784E-3,5C000400,-0724,0840,12001,026.9,045.4,0.224,766.1,01.15,0.508
2017-03-02 02:01:00,1620E-3,5C000400,-0724,0839,11985,026.9,045.4,0.224,766.0,01.15,0.508
2017-03-02 02:02:00,1703E-3,5C000400,-0724,0839,12031,026.9,045.4,0.224,766.0,01.15,0.508
2017-03-02 02:03:00,1619E-3,5C000400,-0724,0839,12183,026.9,045.4,0.224,766.0,01.15,0.508
2017-03-02 02:04:00,1688E-3,5C000400,-0724,0840,12124,026.9,045.4,0.225,766.0,01.15,0.508
2017-03-02 02:05:00,1667E-3,5C000400,-0724,0839,12143,026.9,045.4,0.224,766.0,01.15,0.508
2017-03-02 02:06:00,1692E-3,5C000400,-0724,0839,11940,026.9,045.4,0.224,766.0,01.15,0.508
2017-03-02 02:07:00,1705E-3,5C000400,-0724,0839,12139,026.9,045.4,0.224,766.0,01.15,0.508
2017-03-02 02:08:00,1703E-3,5C000400,-0724,0839,11928,026.9,045.4,0.224,766.0,01.15,0.508
2017-03-02 02:09:00,1706E-3,5C000400,-0724,0840,12111,026.9,045.4,0.225,766.0,01.15,0.508
2017-03-02 02:10:00,1651E-3,5C000400,-0724,0838,12031,026.9,045.4,0.224,766.0,01.15,0.508
2017-03-02 02:11:00,1555E-3,5C000400,-0724,0839,12083,026.9,045.4,0.224,766.0,01.15,0.508
2017-03-02 02:12:00,1777E-3,5C000400,-0724,0839,12112,026.9,045.4,0.224,766.0,01.15,0.508
2017-03-02 02:13:00,1746E-3,5C000400,-0724,0839,12004,026.9,045.4,0.224,766.0,01.15,0.508
2017-03-02 02:14:00,1709E-3,5C000400,-0724,0839,12012,026.9,045.4,0.225,766.0,01.15,0.508
2017-03-02 02:15:00,1674E-3,5C000400,-0724,0839,12121,026.9,045.4,0.224,766.0,01.15,0.508
2017-03-02 02:16:00,1662E-3,5C000400,-0724,0839,12065,027.0,045.4,0.224,766.0,01.15,0.508
2017-03-02 02:17:00,1744E-3,5C000400,-0724,0839,11999,027.0,045.4,0.224,766.0,01.15,0.508
2017-03-02 02:18:00,1739E-3,5C000400,-0724,0839,12076,026.9,045.4,0.224,766.0,01.15,0.508
2017-03-02 02:19:00,1836E-3,5C000400,-0724,0839,12173,027.0,045.4,0.225,766.0,01.15,0.508
2017-03-02 02:20:00,1738E-3,5C000400,-0724,0839,12048,027.0,045.4,0.224,766.0,01.15,0.508
2017-03-02 02:21:00,1703E-3,5C000400,-0724,0840,11984,027.0,045.4,0.224,766.0,01.15,0.508
2017-03-02 02:22:00,1724E-3,5C000400,-0724,0838,11997,027.0,045.4,0.224,766.0,01.15,0.508
2017-03-02 02:23:00,1676E-3,5C000400,-0724,0839,12056,027.0,045.4,0.224,766.0,01.15,0.508
2017-03-02 02:24:00,1721E-3,5C000400,-0724,0840,11954,027.0,045.4,0.224,766.0,01.15,0.508
2017-03-02 02:25:00,1665E-3,5C000400,-0724,0839,12086,027.0,045.4,0.224,766.0,01.15,0.508
2017-03-02 02:26:00,1765E-3,5C000400,-0724,0839,12114,027.0,045.4,0.224,766.0,01.15,0.508
2017-03-02 02:27:00,1706E-3,5C000400,-0724,0839,12096,027.0,045.4,0.224,766.0,01.15,0.508
2017-03-02 02:28:00,1765E-3,5C000400,-0724,0839,12083,027.0,045.4,0.224,766.0,01.15,0.508
2017-03-02 02:29:00,1788E-3,5C000400,-0724,0840,12085,027.0,045.4,0.224,766.0,01.15,0.508
2017-03-02 02:30:00,1737E-3,5C000400,-0724,0839,12029,027.0,045.4,0.224,766.0,01.15,0.508
2017-03-02 02:31:00,1623E-3,5C000400,-0724,0839,11888,027.0,045.4,0.224,766.0,01.15,0.508
2017-03-02 02:32:00,1783E-3,5C000400,-0724,0838,12024,027.0,045.4,0.224,766.0,01.15,0.508
2017-03-02 02:33:00,1635E-3,5C000400,-0724,0839,11995,027.0,045.4,0.224,766.0,01.15,0.508
2017-03-02 02:34:00,1587E-3,5C000400,-0724,0839,12057,027.0,045.4,0.224,766.0,01.15,0.508
2017-03-02 02:35:00,1732E-3,5C000400,-0724,0839,12075,027.0,045.4,0.224,765.9,01.15,0.508
2017-03-02 02:36:00,1705E-3,5C000400,-0724,0839,12082,027.0,045.4,0.225,765.9,01.15,0.508
2017-03-02 02:37:00,1674E-3,5C000400,-0724,0839,12101,027.0,045.4,0.225,766.0,01.15,0.508
2017-03-02 02:38:00,1731E-3,5C000400,-0724,0839,11898,027.0,045.4,0.224,766.0,01.15,0.508
2017-03-02 02:39:00,1748E-3,5C000400,-0724,0839,12140,027.0,045.4,0.224,766.0,01.15,0.508
2017-03-02 02:40:00,1731E-3,5C000400,-0724,0839,11905,027.0,045.4,0.224,766.0,01.15,0.508
2017-03-02 02:41:00,1622E-3,5C000400,-0724,0838,12053,027.0,045.4,0.224,766.0,01.15,0.508
2017-03-02 02:42:00,1651E-3,5C000400,-0724,0840,12051,027.0,045.4,0.224,766.0,01.15,0.508
2017-03-02 02:43:00,1579E-3,5C000400,-0724,0838,12094,027.0,045.4,0.224,766.0,01.15,0.508
2017-03-02 02:44:00,1778E-3,5C000400,-0724,0839,11923,027.1,045.4,0.224,766.0,01.15,0.508
2017-03-02 02:45:00,1781E-3,5C000400,-0724,0839,11951,027.1,045.4,0.224,766.0,01.15,0.508
2017-03-02 02:46:00,1673E-3,5C000400,-0724,0839,11917,027.1,045.4,0.224,765.9,01.15,0.508
2017-03-02 02:47:00,1801E-3,5C000400,-0724,0839,12126,027.1,045.4,0.224,765.9,01.15,0.508
2017-03-02 02:48:00,1588E-3,5C000400,-0724,0839,12057,027.1,045.4,0.224,765.9,01.15,0.508
2017-03-02 02:49:00,1520E-3,5C000400,-0724,0839,11927,027.1,045.4,0.224,765.9,01.15,0.508
2017-03-02 02:50:00,1715E-3,5C000400,-0724,0839,12095,027.1,045.4,0.224,765.9,01.15,0.508
2017-03-02 02:51:00,1724E-3,5C000400,-0724,0839,12026,027.1,045.4,0.224,765.9,01.15,0.508
2017-03-02 02:52:00,1729E-3,5C000400,-0724,0839,12052,027.1,045.4,0.224,765.9,01.15,0.508
2017-03-02 02:53:00,1680E-3,5C000400,-0724,0838,12183,027.1,045.4,0.224,765.9,01.15,0.508
2017-03-02 02:54:00,1667E-3,5C000400,-0724,0840,12082,027.1,045.4,0.224,765.9,01.15,0.508
2017-03-02 02:55:00,1594E-3,5C000400,-0724,0839,12019,027.1,045.4,0.224,765.9,01.15,0.508
2017-03-02 02:56:00,1898E-3,5C000400,-0724,0839,12058,027.1,045.4,0.224,765.9,01.15,0.508
2017-03-02 02:57:00,1740E-3,5C000400,-0724,0838,11960,027.1,045.4,0.224,765.9,01.15,0.508
2017-03-02 02:58:00,1615E-3,5C000400,-0724,0839,12069,027.1,045.4,0.224,765.9,01.15,0.508
2017-03-02 02:59:00,1620E-3,5C000400,-0724,0840,11985,027.1,045.4,0.224,765.9,01.15,0.508
2017-03-02 03:00:00,1708E-3,5C000400,-0724,0839,12036,027.1,045.4,0.224,765.8,01.16,0.508
2017-03-02 03:01:00,1735E-3,5C000400,-0724,0839,12123,027.1,045.4,0.224,765.9,01.15,0.508
2017-03-02 03:02:00,1636E-3,5C000400,-0724,0840,11914,027.1,045.4,0.224,765.8,01.16,0.508
2017-03-02 03:03:00,1839E-3,5C000400,-0724,0839,12074,027.1,045.4,0.224,765.8,01.16,0.508
2017-03-02 03:04:00,1746E-3,5C000400,-0724,0839,12077,027.1,045.4,0.224,765.8,01.16,0.508
2017-03-02 03:05:00,1709E-3,5C000400,-0724,0839,11928,027.1,045.4,0.224,765.8,01.16,0.508
2017-03-02 03:06:00,1690E-3,5C000400,-0724,0839,12097,027.1,045.4,0.224,765.8,01.16,0.508
2017-03-02 03:07:00,1835E-3,5C000400,-0724,0840,11981,027.1,045.4,0.224,765.8,01.16,0.508
2017-03-02 03:08:00,1823E-3,5C000400,-0724,0839,11962,027.1,045.4,0.224,765.8,01.16,0.508
2017-03-02 03:09:00,1669E-3,5C000400,-0724,0839,12022,027.1,045.4,0.223,765.9,01.15,0.508
2017-03-02 03:10:00,1720E-3,5C000400,-0724,0839,12119,027.1,045.4,0.224,765.9,01.15,0.508
2017-03-02 03:11:00,1732E-3,5C000400,-0724,0839,12008,027.1,045.4,0.224,765.9,01.15,0.508
2017-03-02 03:12:00,1724E-3,5C000400,-0724,0839,12045,027.1,045.4,0.224,765.8,01.16,0.508
2017-03-02 03:13:00,1789E-3,5C000400,-0724,0839,12007,027.2,045.4,0.224,765.8,01.16,0.508
2017-03-02 03:14:00,1658E-3,5C000400,-0724,0840,11985,027.2,045.4,0.224,765.9,01.15,0.508
2017-03-02 03:15:00,1718E-3,5C000400,-0724,0839,12119,027.1,045.4,0.224,765.8,01.16,0.508
2017-03-02 03:16:00,1697E-3,5C000400,-0724,0839,12033,027.2,045.4,0.224,765.8,01.16,0.508
2017-03-02 03:17:00,1740E-3,5C000400,-0724,0839,11855,027.1,045.4,0.224,765.8,01.16,0.508
2017-03-02 03:18:00,1619E-3,5C000400,-0724,0838,12126,027.2,045.4,0.224,765.8,01.16,0.508
2017-03-02 03:19:00,1679E-3,5C000400,-0724,0839,12032,027.2,045.4,0.224,765.8,01.16,0.508
2017-03-02 03:20:00,1751E-3,5C000400,-0724,0840,12067,027.2,045.4,0.224,765.8,01.16,0.508
2017-03-02 03:21:00,1638E-3,5C000400,-0724,0839,12028,027.2,045.4,0.224,765.8,01.16,0.508
2017-03-02 03:22:00,1607E-3,5C000400,-0724,0839,12057,027.2,045.4,0.223,765.8,01.16,0.508
2017-03-02 03:23:00,1739E-3,5C000400,-0724,0839,11929,027.2,045.4,0.224,765.8,01.16,0.508
2017-03-02 03:24:00,1726E-3,5C000400,-0724,0839,11924,027.2,045.4,0.224,765.8,01.16,0.508
2017-03-02 03:25:00,1581E-3,5C000400,-0724,0839,11914,027.2,045.4,0.224,765.8,01.16,0.508
2017-03-02 03:26:00,1674E-3,5C000400,-0724,0839,12029,027.2,045.4,0.223,765.8,01.16,0.508
2017-03-02 03:27:00,1711E-3,5C000400,-0724,0839,12069,027.2,045.4,0.224,765.9,01.15,0.508
2017-03-02 03:28:00,1689E-3,5C000400,-0724,0840,11955,027.2,045.4,0.224,765.9,01.15,0.508
2017-03-02 03:29:00,1629E-3,5C000400,-0724,0839,12057,027.2,045.4,0.224,765.9,01.15,0.508
2017-03-02 03:30:00,1612E-3,5C000400,-0724,0839,12049,027.2,045.4,0.223,765.9,01.15,0.508
2017-03-02 03:31:00,1660E-3,5C000400,-0724,0839,12070,027.2,045.4,0.224,765.9,01.15,0.508
2017-03-02 03:32:00,1740E-3,5C000400,-0724,0839,12054,027.2,045.4,0.224,765.9,01.15,0.508
2017-03-02 03:33:00,1758E-3,5C000400,-0724,0839,11985,027.2,045.4,0.224,765.9,01.15,0.508
2017-03-02 03:34:00,1750E-3,5C000400,-0724,0839,11979,027.2,045.4,0.223,765.9,01.15,0.508
2017-03-02 03:35:00,1818E-3,5C000400,-0724,0839,11986,027.2,045.4,0.224,765.8,01.16,0.508
2017-03-02 03:36:00,1631E-3,5C000400,-0724,0839,12021,027.2,045.4,0.224,765.8,01.16,0.508
2017-03-02 03:37:00,1730E-3,5C000400,-0724,0840,12147,027.2,045.4,0.224,765.8,01.16,0.508
2017-03-02 03:38:00,1638E-3,5C000400,-0724,0838,11974,027.3,045.4,0.224,765.9,01.15,0.508
2017-03-02 03:39:00,1672E-3,5C000400,-0724,0839,12069,027.2,045.4,0.224,765.9,01.15,0.508
2017-03-02 03:40:00,1836E-3,5C000400,-0724,0839,12110,027.2,045.4,0.224,765.9,01.15,0.508
2017-03-02 03:41:00,1664E-3,5C000400,-0724,0840,12164,027.2,045.4,0.223,765.9,01.15,0.508
2017-03-02 03:42:00,1663E-3,5C000400,-0724,0839,12076,027.2,045.4,0.224,765.9,01.15,0.508
2017-03-02 03:43:00,1731E-3,5C000400,-0724,0839,12111,027.2,045.4,0.224,765.9,01.15,0.508
2017-03-02 03:44:00,1679E-3,5C000400,-0724,0839,11907,027.3,045.4,0.224,765.9,01.15,0.508
2017-03-02 03:45:00,1697E-3,5C000400,-0724,0838,12023,027.3,045.4,0.223,765.9,01.15,0.508
2017-03-02 03:46:00,1701E-3,5C000400,-0724,0840,12075,027.3,045.4,0.224,765.8,01.16,0.508
2017-03-02 03:47:00,1801E-3,5C000400,-0724,0839,11990,027.3,045.4,0.224,765.8,01.16,0.508
2017-03-02 03:48:00,1633E-3,5C000400,-0724,0839,12058,027.3,045.4,0.224,765.8,01.16,0.508
2017-03-02 03:49:00,1741E-3,5C000400,-0724,0839,12074,027.3,045.4,0.223,765.8,01.16,0.508
2017-03-02 03:50:00,1784E-3,5C000400,-0724,0839,12068,027.3,045.4,0.224,765.8,01.16,0.508
2017-03-02 03:51:00,1559E-3,5C000400,-0724,0839,12064,027.3,045.4,0.224,765.8,01.16,0.508
2017-03-02 03:52:00,1624E-3,5C000400,-0724,0839,11981,027.3,045.4,0.224,765.8,01.16,0.508
2017-03-02 03:53:00,1589E-3,5C000400,-0724,0839,12036,027.3,045.4,0.223,765.8,01.16,0.508
2017-03-02 03:54:00,1603E-3,5C000400,-0724,0839,11771,027.3,045.4,0.224,765.8,01.16,0.508
2017-03-02 03:55:00,1645E-3,5C000400,-0724,0839,12066,027.3,045.4,0.224,765.8,01.16,0.508
2017-03-02 03:56:00,1677E-3,5C000400,-0724,0839,12070,027.3,045.4,0.224,765.8,01.16,0.508
2017-03-02 03:57:00,1701E-3,5C000400,-0724,0838,11980,027.3,045.4,0.223,765.8,01.16,0.508
2017-03-02 03:58:00,1740E-3,5C000400,-0724,0839,12051,027.3,045.4,0.223,765.8,01.16,0.508
2017-03-02 03:59:00,1750E-3,5C000400,-0724,0839,12002,027.3,045.4,0.224,765.7,01.16,0.508
2017-03-02 04:00:00,1527E-3,5C000400,-0724,0839,12010,027.3,045.4,0.224,765.8,01.16,0.508
2017-03-02 04:01:00,1750E-3,5C000400,-0724,0839,12021,027.3,045.4,0.223,765.8,01.16,0.508
2017-03-02 04:02:00,1577E-3,5C000400,-0724,0839,12176,027.3,045.4,0.223,765.8,01.16,0.508
2017-03-02 04:03:00,1747E-3,5C000400,-0724,0839,12060,027.3,045.4,0.224,765.8,01.16,0.508
2017-03-02 04:04:00,1655E-3,5C000400,-0724,0839,12010,027.3,045.4,0.223,765.8,01.16,0.508
2017-03-02 04:05:00,1705E-3,5C000400,-0724,0839,12105,027.4,045.4,0.223,765.7,01.16,0.508
2017-03-02 04:06:00,1619E-3,5C000400,-0724,0839,11958,027.3,045.4,0.223,765.7,01.16,0.508
2017-03-02 04:07:00,1742E-3,5C000400,-0724,0839,11893,027.4,045.4,0.224,765.7,01.16,0.508
2017-03-02 04:08:00,1587E-3,5C000400,-0724,0839,12002,027.3,045.4,0.223,765.7,01.16,0.508
2017-03-02 04:09:00,1684E-3,5C000400,-0724,0839,11949,027.4,045.4,0.223,765.7,01.16,0.508
2017-03-02 04:10:00,1693E-3,5C000400,-0724,0838,12014,027.3,045.4,0.223,765.6,01.16,0.508
2017-03-02 04:11:00,1578E-3,5C000400,-0724,0839,12079,027.4,045.4,0.223,765.6,01.16,0.508
2017-03-02 04:12:00,1737E-3,5C000400,-0724,0839,12033,027.4,045.4,0.223,765.6,01.16,0.508
2017-03-02 04:13:00,1559E-3,5C000400,-0724,0839,12000,027.4,045.4,0.223,765.6,01.16,0.508
2017-03-02 04:14:00,1720E-3,5C000400,-0724,0839,12038,027.4,045.4,0.223,765.6,01.16,0.508
2017-03-02 04:15:00,1559E-3,5C000400,-0724,0839,11951,027.4,045.4,0.223,765.6,01.16,0.508
2017-03-02 04:16:00,1739E-3,5C000400,-0724,0839,12096,027.4,045.4,0.223,765.6,01.16,0.508
2017-03-02 04:17:00,1677E-3,5C000400,-0724,0839,12043,027.4,045.4,0.223,765.6,01.16,0.508
2017-03-02 04:18:00,1692E-3,5C000400,-0724,0840,11890,027.4,045.4,0.224,765.6,01.16,0.508
2017-03-02 04:19:00,1716E-3,5C000400,-0724,0839,12222,027.4,045.4,0.223,765.6,01.16,0.508
2017-03-02 04:20:00,1690E-3,5C000400,-0724,0839,11966,027.4,045.4,0.223,765.6,01.16,0.508